FW6857 Weather Reports


time (UTC)temp
C
wind
direction
speed
KPH
gust
KPH
rain 1hr
cm
rain 24hr
cm
rain mn
cm
humidity
%
barometer
mb
20260906044555 15 0 0.0 0.0 0.00 0.00 0.00 97 1013.2
20260906043053 15 0 0.0 0.0 0.00 0.00 0.00 97 1013.3
20260906041554 15 0 0.0 0.0 0.00 0.00 0.00 97 1013.2
20260906040103 15 0 0.0 0.0 0.00 0.00 0.00 97 1013.2
20260906034548 15 0 0.0 0.0 0.00 0.00 0.00 97 1013.2
20260906033054 15 0 0.0 0.0 0.00 0.00 0.00 97 1013.1
20260906031553 15 0 0.0 0.0 0.00 0.00 0.00 97 1013.0
20260906030052 16 0 0.0 0.0 0.00 0.00 0.00 96 1012.7
20260906024559 16 0 0.0 0.0 0.00 0.00 0.00 96 1012.6
20260906023053 16 0 0.0 0.0 0.00 0.00 0.00 96 1012.7
20260906021551 16 0 0.0 0.0 0.00 0.00 0.00 96 1012.5
20260906020049 16 0 0.0 0.0 0.00 0.00 0.00 96 1012.6
20260906014633 16 0 0.0 0.0 0.00 0.00 0.00 95 1012.4
20260906013059 17 0 0.0 0.0 0.00 0.00 0.00 96 1012.1
20260906011558 17 0 0.0 0.0 0.00 0.00 0.00 95 1012.2
20260906010054 17 0 0.0 0.0 0.00 0.00 0.00 95 1012.0
20260906004603 17 0 0.0 0.0 0.00 0.00 0.00 95 1011.7
20260906003108 17 0 0.0 0.0 0.00 0.00 0.00 94 1011.7
20260906001549 17 0 0.0 0.0 0.00 0.00 0.00 93 1011.8
20260906000047 18 0 0.0 0.0 0.00 0.00 0.00 93 1011.5
20260905234545 18 0 0.0 0.0 0.00 0.00 0.00 91 1011.4
20260905233054 19 0 0.0 0.0 0.00 0.00 0.00 89 1011.3
20260905231549 20 0 0.0 0.0 0.00 0.00 0.00 87 1011.4
20260905230054 20 0 0.0 0.0 0.00 0.00 0.00 84 1011.3
20260905224555 21 0 0.0 0.0 0.00 0.00 0.00 82 1011.0
20260905223049 22 0 0.0 1.6 0.00 0.00 0.00 77 1010.9
20260905221606 23 0 0.0 0.0 0.00 0.00 0.00 71 1010.8
20260905220057 24 0 0.0 1.6 0.00 0.00 0.00 65 1010.8
20260905214549 25 0 0.0 0.0 0.00 0.00 0.00 64 1010.4
20260905213105 26 0 0.0 1.6 0.00 0.00 0.00 59 1010.8
20260905211559 25 0 0.0 0.0 0.00 0.00 0.00 60 1010.5
20260905210058 25 0 0.0 3.2 0.00 0.00 0.00 64 1010.4
20260905204553 25 0 0.0 0.0 0.00 0.00 0.00 62 1010.3
20260905203104 25 0 0.0 4.8 0.00 0.00 0.00 60 1010.0
20260905201609 25 0 0.0 3.2 0.00 0.00 0.00 61 1010.3
20260905200054 25 0 0.0 1.6 0.00 0.00 0.00 59 1010.2
20260905194550 25 0 0.0 1.6 0.00 0.00 0.00 58 1010.1
20260905193108 25 0 0.0 1.6 0.00 0.00 0.00 58 1010.1
20260905191555 25 0 0.0 0.0 0.00 0.00 0.00 61 1010.1
20260905190053 25 0 0.0 3.2 0.00 0.00 0.00 59 1010.3
20260905184603 25 0 0.0 1.6 0.00 0.00 0.00 64 1010.4
20260905183055 24 0 0.0 4.8 0.00 0.00 0.00 65 1010.5
20260905181606 23 0 0.0 4.8 0.00 0.00 0.00 65 1010.5
20260905180050 23 0 0.0 3.2 0.00 0.00 0.00 69 1010.7
20260905174602 23 0 0.0 0.0 0.00 0.00 0.00 69 1010.9
20260905173054 23 0 0.0 8.0 0.00 0.00 0.00 70 1010.8
20260905171551 23 0 0.0 1.6 0.00 0.00 0.00 68 1011.0
20260905164557 23 0 0.0 1.6 0.00 0.00 0.00 69 1010.9
20260905163055 22 0 0.0 1.6 0.00 0.00 0.00 74 1010.8
20260905161602 22 0 0.0 3.2 0.00 0.00 0.00 70 1010.9
20260905160052 22 0 0.0 3.2 0.00 0.00 0.00 72 1011.1
20260905154615 22 0 0.0 1.6 0.00 0.00 0.00 70 1011.1
20260905153054 22 0 0.0 3.2 0.00 0.00 0.00 72 1011.0
20260905151600 22 0 0.0 4.8 0.00 0.00 0.00 72 1011.3
20260905150048 22 0 0.0 3.2 0.00 0.00 0.00 75 1011.2
20260905144556 21 0 0.0 3.2 0.00 0.00 0.00 75 1011.1
20260905143054 21 0 0.0 8.0 0.00 0.00 0.00 78 1011.1
20260905141552 21 0 0.0 0.0 0.00 0.00 0.00 80 1011.1
20260905140051 20 0 0.0 0.0 0.00 0.00 0.00 83 1011.0
20260905134555 20 0 0.0 0.0 0.00 0.00 0.00 85 1011.1
20260905133055 19 0 0.0 1.6 0.00 0.00 0.00 86 1011.1
20260905131555 18 0 0.0 0.0 0.00 0.00 0.00 92 1011.3
20260905130054 17 0 0.0 0.0 0.00 0.00 0.00 98 1011.4
20260905124601 17 0 0.0 0.0 0.00 0.00 0.00 100 1011.6
20260905123057 16 0 0.0 0.0 0.00 0.00 0.00 100 1011.6
20260905121551 16 0 0.0 0.0 0.00 0.00 0.00 100 1011.6
20260905120053 15 0 0.0 0.0 0.00 0.00 0.00 99 1011.6
20260905114548 15 0 0.0 0.0 0.00 0.00 0.00 99 1011.5
20260905113056 14 0 0.0 0.0 0.00 0.00 0.00 99 1011.3
20260905111603 14 0 0.0 0.0 0.00 0.00 0.00 98 1011.0
20260905110058 14 0 0.0 0.0 0.00 0.00 0.00 98 1010.7
20260905104611 14 0 0.0 0.0 0.00 0.00 0.00 98 1010.6
20260905103055 14 0 0.0 0.0 0.00 0.00 0.00 98 1010.5
20260905101600 14 0 0.0 0.0 0.00 0.00 0.00 98 1010.6
20260905100059 15 0 0.0 0.0 0.00 0.00 0.00 98 1010.4
20260905094549 15 0 0.0 0.0 0.00 0.00 0.00 98 1010.3
20260905093056 15 0 0.0 0.0 0.00 0.00 0.00 98 1010.1
20260905091608 15 0 0.0 0.0 0.00 0.00 0.00 98 1010.2
20260905090053 15 0 0.0 0.0 0.00 0.00 0.00 98 1010.1
20260905084608 15 0 0.0 0.0 0.00 0.00 0.00 98 1010.1
20260905083056 16 0 0.0 0.0 0.00 0.00 0.00 98 1010.1
20260905081552 16 0 0.0 0.0 0.00 0.00 0.00 98 1010.2
20260905080109 16 0 0.0 0.0 0.00 0.00 0.00 98 1010.2
20260905074558 16 0 0.0 0.0 0.00 0.00 0.00 98 1010.3
20260905073058 16 0 0.0 0.0 0.00 0.00 0.00 98 1010.0
20260905071552 17 0 0.0 0.0 0.00 0.00 0.00 98 1010.1
20260905070109 17 0 0.0 0.0 0.00 0.00 0.00 99 1010.3
20260905064551 17 0 0.0 0.0 0.00 0.00 0.00 98 1010.3
20260905063059 17 0 0.0 0.0 0.00 0.00 0.00 98 1010.4
20260905061611 17 0 0.0 0.0 0.00 0.00 0.00 98 1010.6
20260905060059 17 0 0.0 0.0 0.00 0.00 0.00 98 1010.7
20260905054557 17 0 0.0 0.0 0.00 0.00 0.00 98 1010.8
20260905053103 17 0 0.0 0.0 0.00 0.00 0.00 98 1011.0
20260905051548 17 0 0.0 0.0 0.00 0.00 0.00 98 1011.2
20260905050055 17 0 0.0 0.0 0.00 0.00 0.00 98 1011.2